User: anonymous   Login
Location: Unspecified
(0.0000°N, 0.0000°E)
Time: 17:16:25
(UTC+00:00)
Language:

Envisat - Orbit

View from above orbital plane
View from above orbital plane
View from above satellite
View from above satellite

Ground track
Ground track

The orbit data is extracted from the following two-line orbital elements,

1 27386U 02009A   18263.14659778 -.00000002  00000-0  12987-4 0  9998
2 27386  98.1777 292.6964 0001237  88.6765 312.8434 14.37929852867172
Epoch (UTC): 20 September 2018 03:31:06
Eccentricity: 0.0001237
inclination: 98.1777°
perigee height: 764 km
apogee height: 766 km
right ascension of ascending node: 292.6964°
argument of perigee: 88.6765°
revolutions per day: 14.37929852
mean anomaly at epoch: 312.8434°
orbit number at epoch: 86717

The dashed part of the orbit path shows where the satellite is in the earth's shadow,  

DLR